Change the Weather History Date:

Tuesday, August 27, 2013

  Actual Average Record
Temperature  
Mean Temperature 82 °F 83 °F  
Max Temperature 91 °F 92 °F 101 °F (1924)
Min Temperature 73 °F 74 °F 61 °F (1896)
Cooling Degree Days 17 18  
Month to date cooling degree days 495 508  
Year to date cooling degree days 2035 2192  
Since 1 June cooling degree days 1571 1578  
Growing Degree Days 32 (Base 50)    
Moisture  
Dew Point 71 °F    
Average Humidity 74    
Maximum Humidity 100    
Minimum Humidity 47    
Precipitation  
Precipitation 0.00 in 0.14 in 3.77 in (1967)
Month to date precipitation 3.76 4.03  
Year to date precipitation 42.88 40.03  
Sea Level Pressure  
Sea Level Pressure 30.08 in    
Wind  
Wind Speed 2 mph (NE)    
Max Wind Speed 10 mph    
Max Gust Speed 14 mph    
Visibility 8 miles    
Events      
T = Trace of Precipitation, MM = Missing Value Source: NWS Daily Summary

Daily Weather History Graph

Daily Weather History Graph

Search for Another Location

Airport or City:

Trip Planner

Search our weather history database for the weather conditions in past years. The results will help you decide how hot, cold, wet, or windy it might be!

Date:

Astronomy

Aug. 27, 2013 Rise Set
Actual Time 6:42 AM CDT 7:36 PM CDT
Civil Twilight 6:17 AM CDT 8:00 PM CDT
Nautical Twilight 5:48 AM CDT 8:29 PM CDT
Astronomical Twilight 5:18 AM CDT 8:59 PM CDT
Moon No Moon Rise 1:08 PM CDT (8/27)
Length of Visible Light 13h 43m
Length of Day
12h 53m
Waning Gibbous, 57% of the Moon is Illuminated
Aug 27
Waning Gibbous
Aug 28
Last Quarter
Sep 5
New
Sep 12
First Quarter
Sep 19
Full

Hourly Weather History & Observations

Time (CDT) Temp. Heat Index Dew Point Humidity Pressure Visibility Wind Dir Wind Speed Gust Speed Precip Events Conditions
12:53 AM 75.0 °F - 73.0 °F 94% 30.12 in 10.0 mi NE 4.6 mph - N/A   Overcast
1:53 AM 75.0 °F - 73.0 °F 94% 30.10 in 10.0 mi ENE 3.5 mph - N/A   Clear
2:53 AM 73.9 °F - 73.0 °F 97% 30.08 in 10.0 mi ENE 3.5 mph - N/A   Clear
3:53 AM 73.0 °F - 72.0 °F 96% 30.07 in 8.0 mi Calm Calm - N/A   Scattered Clouds
4:04 AM 73.4 °F - 71.6 °F 94% 30.08 in 3.0 mi NE 3.5 mph - N/A   Mostly Cloudy
4:07 AM 73.4 °F - 71.6 °F 94% 30.08 in 1.8 mi NE 3.5 mph - N/A   Mostly Cloudy
4:17 AM 73.4 °F - 71.6 °F 94% 30.09 in 0.8 mi NE 3.5 mph - 0.01 in   Mist
4:39 AM 73.4 °F - 73.4 °F 100% 30.09 in 1.2 mi NE 3.5 mph - 0.01 in   Overcast
4:49 AM 73.4 °F - 73.4 °F 100% 30.09 in 3.0 mi NE 4.6 mph - 0.01 in   Overcast
4:53 AM 73.9 °F - 72.0 °F 93% 30.09 in 4.0 mi NE 4.6 mph - 0.01 in   Overcast
5:10 AM 73.4 °F - 71.6 °F 94% 30.09 in 7.0 mi NE 3.5 mph - N/A   Scattered Clouds
5:53 AM 73.0 °F - 72.0 °F 96% 30.11 in 7.0 mi NE 3.5 mph - N/A   Clear
6:53 AM 73.0 °F - 71.1 °F 93% 30.12 in 6.0 mi NNE 3.5 mph - N/A   Scattered Clouds
7:53 AM 75.0 °F - 72.0 °F 90% 30.12 in 9.0 mi Calm Calm - N/A   Clear
8:53 AM 78.1 °F - 73.0 °F 84% 30.13 in 10.0 mi NNE 3.5 mph - N/A   Clear
9:53 AM 81.0 °F 85.8 °F 73.0 °F 77% 30.13 in 10.0 mi East 4.6 mph - N/A   Clear
10:53 AM 84.0 °F 89.0 °F 71.1 °F 65% 30.13 in 10.0 mi Calm Calm - N/A   Clear
11:53 AM 87.1 °F 92.0 °F 70.0 °F 57% 30.12 in 10.0 mi NNE 5.8 mph - N/A   Partly Cloudy
12:53 PM 89.1 °F 92.1 °F 66.9 °F 48% 30.10 in 10.0 mi NE 8.1 mph - N/A   Partly Cloudy
1:53 PM 89.1 °F 91.3 °F 66.0 °F 46% 30.09 in 10.0 mi East 3.5 mph - N/A   Scattered Clouds
2:53 PM 90.0 °F 92.4 °F 66.0 °F 45% 30.07 in 10.0 mi NE 3.5 mph - N/A   Clear
3:53 PM 90.0 °F 92.4 °F 66.0 °F 45% 30.05 in 10.0 mi NE 3.5 mph - N/A   Clear
4:53 PM 90.0 °F 92.8 °F 66.9 °F 46% 30.05 in 10.0 mi Calm Calm - N/A   Clear
5:53 PM 86.0 °F 90.1 °F 69.1 °F 57% 30.04 in 10.0 mi Calm Calm - N/A   Scattered Clouds
6:53 PM 86.0 °F 91.5 °F 71.1 °F 61% 30.03 in 10.0 mi Calm Calm - N/A   Clear
7:53 PM 82.0 °F 87.4 °F 73.0 °F 74% 30.04 in 10.0 mi Calm Calm - N/A   Clear
8:53 PM 80.1 °F 83.8 °F 72.0 °F 76% 30.05 in 10.0 mi Calm Calm - N/A   Clear
9:53 PM 78.1 °F - 73.0 °F 84% 30.06 in 10.0 mi Calm Calm - N/A   Clear
10:53 PM 77.0 °F - 71.1 °F 82% 30.06 in 10.0 mi Calm Calm - N/A   Clear
11:53 PM 75.9 °F - 70.0 °F 82% 30.05 in 10.0 mi Calm Calm - N/A   Clear